CW6747 Weather Reports


Display with metric or nautical units.
time (UTC)temp
F
wind
direction
speed
MPH
gust
MPH
rain 1hr
in
rain 24hr
in
rain mn
in
humidity
%
barometer
mb
20260905040036 70 0 0.0 1.0 0.00 0.08 0.00 95 1013.6
20260905034544 70 0 0.0 3.0 0.00 0.08 0.08 95 1013.4
20260905033034 70 98 0.0 2.0 0.01 0.08 0.08 95 1013.4
20260905031539 70 0 0.0 1.0 0.01 0.08 0.08 94 1013.4
20260905030036 70 0 0.0 3.0 0.01 0.08 0.08 93 1013.3
20260905024541 70 0 0.0 2.0 0.01 0.09 0.08 92 1013.3
20260905023039 72 360 1.0 6.0 0.00 0.08 0.07 88 1013.4
20260905021541 74 304 3.0 7.0 0.00 0.08 0.07 82 1013.3
20260905020032 74 306 2.0 5.0 0.00 0.08 0.07 80 1013.1
20260905014535 74 298 2.0 4.0 0.00 0.08 0.07 80 1013.3
20260905013036 74 297 2.0 5.0 0.00 0.08 0.07 81 1013.2
20260905011536 73 283 1.0 4.0 0.00 0.08 0.07 84 1013.3
20260905010034 73 0 0.0 1.0 0.00 0.08 0.07 83 1013.1
20260905004535 74 296 0.0 2.0 0.00 0.08 0.07 82 1013.1
20260905003036 74 0 0.0 2.0 0.00 0.08 0.07 81 1012.9
20260905001535 75 334 0.0 3.0 0.00 0.08 0.07 79 1012.8
20260905000034 74 0 0.0 2.0 0.00 0.08 0.07 81 1012.8
20260904234545 75 0 0.0 2.0 0.01 0.09 0.07 80 1012.6
20260904233052 76 281 1.0 3.0 0.01 0.09 0.07 79 1012.8
20260904231536 76 263 1.0 4.0 0.01 0.09 0.07 76 1012.8
20260904230035 77 337 2.0 5.0 0.01 0.09 0.07 70 1012.5
20260904224542 78 360 2.0 7.0 0.00 0.08 0.06 70 1012.5
20260904223041 78 326 5.0 9.0 0.00 0.08 0.06 68 1012.6
20260904221536 79 36 3.0 9.0 0.00 0.08 0.06 68 1012.5
20260904220036 80 360 4.0 6.0 0.00 0.08 0.06 66 1012.3
20260904214541 79 0 1.0 5.0 0.00 0.08 0.06 71 1012.4
20260904213036 79 337 4.0 9.0 0.00 0.08 0.06 68 1012.8
20260904211534 79 325 5.0 10.0 0.00 0.08 0.06 67 1012.6
20260904210040 79 314 5.0 10.0 0.00 0.08 0.06 67 1012.9
20260904204537 81 336 3.0 10.0 0.00 0.09 0.06 67 1013.0
20260904203035 79 325 4.0 14.0 0.00 0.09 0.06 68 1013.1
20260904201535 82 351 6.0 14.0 0.01 0.09 0.06 65 1013.1
20260904200040 80 360 7.0 16.0 0.01 0.09 0.06 69 1013.2
20260904194541 81 28 7.0 12.0 0.01 0.09 0.06 67 1013.2
20260904193043 81 273 6.0 11.0 0.00 0.08 0.05 71 1013.4
20260904191536 80 350 4.0 12.0 0.00 0.08 0.05 70 1013.4
20260904190035 80 360 6.0 11.0 0.00 0.08 0.05 71 1013.8
20260904184545 78 331 5.0 11.0 0.00 0.08 0.05 73 1013.8
20260904183036 78 300 5.0 11.0 0.00 0.08 0.05 71 1013.9
20260904181534 79 352 7.0 13.0 0.00 0.08 0.05 69 1014.3
20260904180046 80 262 7.0 13.0 0.00 0.08 0.05 71 1014.5
20260904174538 80 360 7.0 14.0 0.01 0.09 0.05 69 1014.7
20260904173039 79 13 8.0 15.0 0.01 0.09 0.05 68 1015.0
20260904171535 80 199 3.0 12.0 0.01 0.09 0.05 71 1015.0
20260904170035 78 317 4.0 9.0 0.01 0.09 0.05 72 1015.0
20260904164534 78 350 2.0 10.0 0.00 0.08 0.04 73 1015.0
20260904163035 79 329 3.0 10.0 0.00 0.08 0.04 73 1014.9
20260904161535 78 10 4.0 8.0 0.00 0.08 0.04 71 1015.1
20260904160041 78 17 5.0 13.0 0.00 0.08 0.04 72 1015.2
20260904154536 77 302 3.0 10.0 0.00 0.09 0.04 76 1015.2
20260904153046 76 329 3.0 8.0 0.01 0.09 0.04 74 1015.4
20260904151535 76 341 3.0 9.0 0.01 0.09 0.04 75 1015.3
20260904150036 75 360 5.0 11.0 0.01 0.09 0.04 75 1015.2
20260904144534 75 272 2.0 8.0 0.01 0.09 0.04 78 1015.1
20260904143035 74 349 4.0 9.0 0.00 0.08 0.03 78 1015.2
20260904141539 74 294 6.0 11.0 0.00 0.08 0.03 78 1015.3
20260904140038 73 302 4.0 13.0 0.00 0.08 0.03 80 1015.4
20260904134534 73 337 6.0 10.0 0.00 0.09 0.03 79 1015.3
20260904133032 73 279 3.0 11.0 0.00 0.09 0.03 81 1015.2
20260904131541 73 340 8.0 13.0 0.00 0.09 0.03 80 1015.3
20260904130034 72 334 4.0 10.0 0.01 0.09 0.03 83 1015.4
20260904124542 71 307 3.0 6.0 0.01 0.10 0.03 85 1015.4
20260904123034 70 294 1.0 4.0 0.01 0.10 0.03 86 1015.7
20260904121536 70 279 3.0 7.0 0.01 0.10 0.03 85 1015.7
20260904120036 70 255 1.0 5.0 0.00 0.09 0.02 86 1015.5
20260904114542 70 281 1.0 4.0 0.00 0.09 0.02 87 1015.6
20260904113033 69 0 0.0 3.0 0.00 0.09 0.02 88 1015.4
20260904111535 69 288 2.0 4.0 0.00 0.09 0.02 89 1015.7
20260904110037 69 277 1.0 3.0 0.00 0.09 0.02 90 1015.5
20260904104536 69 267 1.0 4.0 0.00 0.10 0.02 90 1015.5
20260904103038 69 271 0.0 4.0 0.00 0.10 0.02 90 1015.5
20260904101539 69 254 1.0 4.0 0.00 0.10 0.02 90 1015.4
20260904100034 68 254 0.0 3.0 0.01 0.10 0.02 90 1014.9
20260904094537 69 286 1.0 5.0 0.01 0.10 0.02 90 1014.8
20260904093034 69 309 2.0 7.0 0.01 0.10 0.02 90 1015.0
20260904091535 68 303 2.0 7.0 0.01 0.10 0.02 90 1015.0
20260904090034 68 300 4.0 7.0 0.00 0.09 0.01 90 1015.1
20260904084533 68 348 1.0 7.0 0.00 0.10 0.01 90 1015.0
20260904083051 68 295 2.0 6.0 0.00 0.10 0.01 89 1014.7
20260904081535 68 275 3.0 7.0 0.00 0.10 0.01 89 1014.4
20260904080032 68 0 0.0 4.0 0.00 0.10 0.01 89 1014.2
20260904074540 69 283 3.0 6.0 0.00 0.10 0.01 89 1014.2
20260904073034 68 287 4.0 9.0 0.00 0.10 0.01 91 1014.1
20260904071536 67 271 3.0 6.0 0.00 0.10 0.01 94 1014.1
20260904070033 67 298 2.0 4.0 0.00 0.10 0.01 94 1013.9
20260904064533 68 268 2.0 4.0 0.01 0.11 0.01 94 1013.9
20260904063046 68 0 1.0 4.0 0.01 0.11 0.01 94 1014.0
20260904061536 68 299 3.0 5.0 0.01 0.11 0.01 93 1013.7
20260904060051 68 320 2.0 5.0 0.01 0.11 0.01 93 1013.5
20260904054534 68 283 3.0 7.0 0.00 0.10 0.00 93 1013.7
20260904053035 69 318 3.0 6.0 0.00 0.10 0.00 93 1013.9
20260904051534 69 260 2.0 7.0 0.00 0.10 0.00 92 1014.1
20260904050034 69 307 3.0 7.0 0.00 0.10 0.00 91 1014.2
20260904044543 69 263 2.0 6.0 0.00 0.10 0.00 91 1014.0
20260904043037 70 0 0.0 3.0 0.00 0.10 0.00 89 1013.7
20260904041536 70 0 1.0 4.0 0.00 0.10 0.00 88 1013.4